N0KWA Weather Reports


time (UTC)temp
C
wind
direction
speed
KPH
gust
KPH
rain 1hr
cm
rain 24hr
cm
rain mn
cm
humidity
%
barometer
mb
20260504160136 22 352 1.6 1.6 0.00 0.00 0.00 53 1019.8
20260504151103 21 353 0.0 1.6 0.00 0.00 0.00 60 1020.3
20260504150601 21 356 0.0 0.0 0.00 0.00 0.00 67 1020.2
20260504141026 17 30 0.0 0.0 0.00 0.00 0.00 87 1020.3
20260504140523 17 30 0.0 0.0 0.00 0.00 0.00 87 1020.5
20260504130447 12 36 0.0 0.0 0.00 0.00 0.00 99 1020.4
20260504110334 9 36 0.0 0.0 0.00 0.00 0.00 99 1019.9
20260504100246 10 36 0.0 0.0 0.00 0.00 0.00 99 1019.7
20260504081639 10 36 0.0 0.0 0.00 0.00 0.00 99 1019.8
20260504081136 10 36 0.0 0.0 0.00 0.00 0.00 99 1019.9
20260504080632 10 36 0.0 0.0 0.00 0.00 0.00 99 1020.0
20260504080129 10 36 0.0 0.0 0.00 0.00 0.00 99 1019.9
20260504050445 12 36 0.0 0.0 0.00 0.00 0.00 99 1021.2
20260504045942 12 36 0.0 0.0 0.00 0.00 0.00 99 1021.1
20260504045437 12 36 0.0 0.0 0.00 0.00 0.00 99 1021.2
20260504044934 12 36 0.0 0.0 0.00 0.00 0.00 99 1021.2
20260504044431 12 36 0.0 0.0 0.00 0.00 0.00 98 1021.1
20260504043929 12 36 0.0 0.0 0.00 0.00 0.00 98 1021.2
20260504043425 12 36 0.0 0.0 0.00 0.00 0.00 98 1021.2
20260504042918 12 36 0.0 0.0 0.00 0.00 0.00 98 1021.2
20260504042414 12 36 0.0 0.0 0.00 0.00 0.00 98 1021.1
20260504041910 12 36 0.0 0.0 0.00 0.00 0.00 98 1021.2
20260504041407 13 30 0.0 0.0 0.00 0.00 0.00 97 1021.0
20260504040903 13 36 0.0 0.0 0.00 0.00 0.00 97 1021.0
20260504040400 13 36 0.0 0.0 0.00 0.00 0.00 96 1021.0
20260504035856 13 36 0.0 0.0 0.00 0.00 0.00 96 1021.1
20260504035354 13 36 0.0 0.0 0.00 0.00 0.00 96 1021.0
20260504034850 13 36 0.0 0.0 0.00 0.00 0.00 95 1021.1
20260504034348 13 36 0.0 0.0 0.00 0.00 0.00 95 1021.2
20260504033844 13 36 0.0 0.0 0.00 0.00 0.00 95 1020.9
20260504033343 13 36 0.0 0.0 0.00 0.00 0.00 95 1021.0
20260504032839 13 36 0.0 0.0 0.00 0.00 0.00 95 1021.0
20260504032336 13 36 0.0 0.0 0.00 0.00 0.00 94 1021.0
20260504031833 13 36 0.0 0.0 0.00 0.00 0.00 94 1021.0
20260504031331 13 36 0.0 0.0 0.00 0.00 0.00 94 1021.0
20260504030826 14 36 0.0 0.0 0.00 0.00 0.00 93 1021.0
20260504030324 14 36 0.0 0.0 0.00 0.00 0.00 93 1021.2
20260504025820 14 36 0.0 0.0 0.00 0.00 0.00 92 1021.0
20260504025317 14 36 0.0 0.0 0.00 0.00 0.00 91 1021.1
20260504024814 15 36 0.0 0.0 0.00 0.00 0.00 91 1021.0
20260504024310 15 36 0.0 0.0 0.00 0.00 0.00 91 1020.9
20260504023807 15 36 0.0 0.0 0.00 0.00 0.00 91 1021.0
20260504023304 15 36 0.0 0.0 0.00 0.00 0.00 90 1020.9
20260504022759 15 36 0.0 0.0 0.00 0.00 0.00 89 1020.6
20260504022256 15 37 0.0 0.0 0.00 0.00 0.00 89 1020.8
20260504021753 15 37 0.0 0.0 0.00 0.00 0.00 88 1020.7
20260504021251 15 36 0.0 0.0 0.00 0.00 0.00 88 1020.7
20260504020747 15 36 0.0 0.0 0.00 0.00 0.00 88 1020.7
20260504020244 15 37 0.0 0.0 0.00 0.00 0.00 87 1020.4
20260504015740 15 37 0.0 0.0 0.00 0.00 0.00 87 1020.6
20260504015236 16 37 0.0 0.0 0.00 0.00 0.00 86 1020.3
20260504014732 16 36 0.0 0.0 0.00 0.00 0.00 85 1020.3
20260504014229 16 36 0.0 0.0 0.00 0.00 0.00 84 1020.4
20260504013727 16 36 0.0 0.0 0.00 0.00 0.00 84 1020.4
20260504013224 16 36 0.0 0.0 0.00 0.00 0.00 83 1020.3
20260504012720 16 37 0.0 0.0 0.00 0.00 0.00 83 1020.2
20260504012219 16 36 0.0 0.0 0.00 0.00 0.00 83 1020.2
20260504011715 17 36 0.0 0.0 0.00 0.00 0.00 81 1020.1
20260504011212 17 36 0.0 0.0 0.00 0.00 0.00 79 1020.1
20260504010708 17 36 0.0 0.0 0.00 0.00 0.00 79 1020.0
20260504010204 17 37 0.0 0.0 0.00 0.00 0.00 80 1020.1
20260504005700 17 37 0.0 0.0 0.00 0.00 0.00 78 1020.1
20260504005157 18 37 0.0 0.0 0.00 0.00 0.00 76 1019.9
20260504004655 18 37 0.0 0.0 0.00 0.00 0.00 74 1019.9
20260504004152 18 37 0.0 0.0 0.00 0.00 0.00 73 1019.8
20260504003648 18 341 0.0 0.0 0.00 0.00 0.00 75 1019.9
20260504003146 18 341 0.0 0.0 0.00 0.00 0.00 71 1019.9
20260504002642 19 341 0.0 0.0 0.00 0.00 0.00 69 1019.9
20260504002140 20 30 0.0 0.0 0.00 0.00 0.00 67 1019.8
20260504001638 20 30 0.0 0.0 0.00 0.00 0.00 64 1019.9
20260504001133 20 34 0.0 0.0 0.00 0.00 0.00 64 1019.9
20260504000631 20 30 0.0 0.0 0.00 0.00 0.00 64 1019.8
20260504000128 20 341 0.0 0.0 0.00 0.00 0.00 63 1019.7
20260503235626 21 341 0.0 0.0 0.00 0.00 0.00 62 1019.7
20260503235122 21 30 0.0 0.0 0.00 0.00 0.00 62 1019.7
20260503234620 21 30 0.0 0.0 0.00 0.00 0.00 62 1019.8
20260503234118 21 341 0.0 0.0 0.00 0.00 0.00 58 1019.8
20260503233615 21 341 0.0 0.0 0.00 0.00 0.00 56 1019.8
20260503233111 21 30 0.0 0.0 0.00 0.00 0.00 57 1019.8
20260503232608 22 30 0.0 0.0 0.00 0.00 0.00 56 1019.8
20260503232105 22 30 0.0 0.0 0.00 0.00 0.00 53 1019.9
20260503231603 22 341 0.0 0.0 0.00 0.00 0.00 53 1019.9
20260503231059 22 34 0.0 0.0 0.00 0.00 0.00 52 1019.8
20260503230556 22 33 0.0 0.0 0.00 0.00 0.00 48 1019.8
20260503230053 22 33 0.0 0.0 0.00 0.00 0.00 50 1019.9
20260503225550 22 34 0.0 0.0 0.00 0.00 0.00 53 1019.9
20260503225045 23 32 0.0 0.0 0.00 0.00 0.00 54 1019.7
20260503224542 23 37 0.0 0.0 0.00 0.00 0.00 50 1019.9
20260503224041 23 36 0.0 0.0 0.00 0.00 0.00 46 1019.9
20260503223539 23 36 0.0 0.0 0.00 0.00 0.00 45 1020.0
20260503223034 23 25 0.0 0.0 0.00 0.00 0.00 41 1020.0
20260503222532 23 34 0.0 0.0 0.00 0.00 0.00 47 1020.1
20260503222029 23 36 0.0 0.0 0.00 0.00 0.00 44 1019.9
20260503221527 23 39 0.0 1.6 0.00 0.00 0.00 46 1019.7
20260503221025 23 11 0.0 0.0 0.00 0.00 0.00 43 1019.9
20260503220520 23 39 0.0 0.0 0.00 0.00 0.00 45 1020.0
20260503220017 23 353 0.0 0.0 0.00 0.00 0.00 45 1020.2
20260503215515 23 36 0.0 0.0 0.00 0.00 0.00 46 1020.3
20260503215012 23 39 0.0 1.6 0.00 0.00 0.00 43 1020.4
20260503214510 23 40 1.6 1.6 0.00 0.00 0.00 47 1020.5
20260503214006 23 5 0.0 0.0 0.00 0.00 0.00 45 1020.5
20260503213505 23 1 0.0 0.0 0.00 0.00 0.00 48 1020.5
20260503213001 23 14 0.0 0.0 0.00 0.00 0.00 48 1020.7
20260503212458 23 36 0.0 0.0 0.00 0.00 0.00 46 1020.8
20260503211955 23 34 0.0 0.0 0.00 0.00 0.00 47 1020.8
20260503211453 23 20 0.0 0.0 0.00 0.00 0.00 47 1020.8
20260503210948 23 20 0.0 0.0 0.00 0.00 0.00 47 1020.9
20260503210445 23 33 0.0 0.0 0.00 0.00 0.00 48 1020.8
20260503205939 23 16 0.0 0.0 0.00 0.00 0.00 45 1021.0
20260503205437 23 33 1.6 1.6 0.00 0.00 0.00 44 1021.1
20260503204933 24 352 0.0 0.0 0.00 0.00 0.00 43 1020.9
20260503204430 24 40 1.6 1.6 0.00 0.00 0.00 42 1021.2
20260503203927 24 36 0.0 0.0 0.00 0.00 0.00 41 1021.3
20260503203425 24 358 0.0 0.0 0.00 0.00 0.00 44 1021.4
20260503202921 24 38 0.0 0.0 0.00 0.00 0.00 45 1021.3
20260503202420 24 357 0.0 0.0 0.00 0.00 0.00 42 1021.4
20260503201918 25 352 0.0 0.0 0.00 0.00 0.00 40 1021.5
20260503201415 25 352 0.0 0.0 0.00 0.00 0.00 41 1021.5
20260503200912 24 352 0.0 0.0 0.00 0.00 0.00 42 1021.5
20260503200408 25 15 0.0 0.0 0.00 0.00 0.00 40 1021.8
20260503195905 24 352 1.6 1.6 0.00 0.00 0.00 44 1021.9
20260503195402 23 26 0.0 0.0 0.00 0.00 0.00 40 1022.1
20260503194859 23 40 0.0 1.6 0.00 0.00 0.00 41 1022.1
20260503194355 23 352 0.0 0.0 0.00 0.00 0.00 42 1022.1
20260503193851 24 350 1.6 3.2 0.00 0.00 0.00 43 1022.3
20260503193347 23 352 0.0 0.0 0.00 0.00 0.00 42 1022.3
20260503192843 23 352 0.0 1.6 0.00 0.00 0.00 40 1022.4
20260503192339 23 44 0.0 1.6 0.00 0.00 0.00 43 1022.6
20260503191835 23 352 0.0 1.6 0.00 0.00 0.00 44 1022.5
20260503191332 23 359 0.0 0.0 0.00 0.00 0.00 42 1022.4
20260503190829 23 36 0.0 0.0 0.00 0.00 0.00 42 1022.6
20260503190326 23 40 0.0 0.0 0.00 0.00 0.00 44 1022.8
20260503185823 23 33 0.0 0.0 0.00 0.00 0.00 41 1022.8
20260503185320 23 27 0.0 0.0 0.00 0.00 0.00 39 1022.9
20260503184820 23 352 0.0 0.0 0.00 0.00 0.00 41 1023.0
20260503184316 23 13 0.0 0.0 0.00 0.00 0.00 41 1023.0
20260503183811 23 353 0.0 0.0 0.00 0.00 0.00 44 1023.1
20260503183309 23 12 0.0 0.0 0.00 0.00 0.00 43 1023.1
20260503182806 23 354 0.0 1.6 0.00 0.00 0.00 41 1023.2
20260503182306 23 11 1.6 1.6 0.00 0.00 0.00 40 1023.4
20260503181802 23 38 0.0 1.6 0.00 0.00 0.00 42 1023.4
20260503181259 23 40 0.0 0.0 0.00 0.00 0.00 41 1023.5
20260503180755 23 10 0.0 1.6 0.00 0.00 0.00 44 1023.6
20260503180254 23 22 0.0 0.0 0.00 0.00 0.00 45 1023.3
20260503175749 23 356 1.6 1.6 0.00 0.00 0.00 45 1023.6
20260503175248 23 38 0.0 0.0 0.00 0.00 0.00 42 1023.4
20260503174743 22 32 0.0 1.6 0.00 0.00 0.00 48 1023.6
20260503174242 23 353 1.6 1.6 0.00 0.00 0.00 43 1023.5
20260503173737 23 356 1.6 1.6 0.00 0.00 0.00 42 1023.7
20260503173233 22 10 0.0 0.0 0.00 0.00 0.00 41 1023.7
20260503172730 22 352 0.0 0.0 0.00 0.00 0.00 40 1023.8
20260503172227 22 40 0.0 0.0 0.00 0.00 0.00 44 1024.0
20260503171723 22 33 0.0 1.6 0.00 0.00 0.00 47 1024.2
20260503171221 22 353 0.0 0.0 0.00 0.00 0.00 43 1024.3
20260503170718 22 29 0.0 1.6 0.00 0.00 0.00 44 1024.4
20260503170215 22 33 0.0 0.0 0.00 0.00 0.00 47 1024.5